Flag for India Weather past 2 weeks in Kannauj, Uttar Pradesh, India

Now
48 °F

Fog.


Feels Like: 48 °F
Forecast: 50 / 67 °F
Wind: No wind

Location: Lucknow / Amausi

Current Time: Dec 19, 2014 at 8:11:51 AM

Latest Report: Dec 19, 2014 at 7:00 AM


Visibility: 0 mi

Pressure: 30.18 "Hg

Humidity: 100%

Dew point: 48 °F

Location of KannaujLocation

Historic Weather in Kannauj — Graph

°F

Kannauj temperature yesterday

Maximum temperature yesterday: 68 °F (at 1:00 PM)
Minimum temperature yesterday: 48 °F (at 6:00 AM)
Average temperature yesterday: 58 °F

Past Weeks' High & Low Weather Summary

 TemperatureHumidityPressure
High77 °F (Dec 7, 2:00 PM)100% (Dec 5, 7:00 AM)30.18 "Hg (Dec 5, 7:00 AM)
Low43 °F (Dec 12, 5:00 AM)25% (Dec 11, 1:00 PM)29.83 "Hg (Dec 5, 12:00 PM)
Average60 °F77%30.02 "Hg
* Reported Dec 4 6:30 AM — Dec 19 6:30 AM, Kannauj, Weather by CustomWeather, © 2014

Note: Actual official high and low records may vary slightly from our data, if they occured in-between our weather recording intervals... More about our weather records

Advertising

Kannauj weather history for previous 24 hours

 ConditionsComfort  
Time TempWeatherWind HumidityBarometerVisibility
6:30 AM
Dec 19
48 °FFog.No wind100%30.18 "Hg0 mi
6:00 AM48 °FFog.No wind100%30.15 "Hg0 mi
5:30 AM48 °FFog.No wind100%30.15 "Hg0 mi
5:00 AM48 °FFog.No wind100%30.15 "Hg0 mi
3:00 AM50 °FFog.No wind94%30.12 "Hg1 mi
2:00 AM50 °FFog.No wind94%30.12 "Hg1 mi
1:00 AM50 °FFog.No wind94%30.12 "Hg1 mi
12:00 AM52 °FFog.No wind88%30.12 "Hg1 mi
11:00 PM
Dec 18
55 °FFog.No wind88%30.12 "Hg1 mi
10:00 PM55 °FFog.2 mph88%30.12 "Hg1 mi
9:00 PM57 °FFog.2 mph82%30.12 "Hg1 mi
8:30 PM57 °FFog.2 mph82%30.12 "Hg1 mi
8:00 PM55 °FFog.2 mph88%30.12 "Hg1 mi
7:30 PM57 °FFog.2 mph82%30.12 "Hg1 mi
6:30 PM59 °FHaze.2 mph82%30.09 "Hg1 mi
6:00 PM63 °FHaze.2 mph73%30.09 "Hg1 mi
5:30 PM64 °FHaze.2 mph68%30.09 "Hg1 mi
5:00 PM66 °FHaze.2 mph60%30.09 "Hg1 mi
4:00 PM68 °FHaze.3 mph56%30.09 "Hg1 mi
3:30 PM68 °FHaze.2 mph56%30.09 "Hg1 mi
3:00 PM68 °FHaze.2 mph56%30.09 "Hg1 mi
2:00 PM68 °FHaze.3 mph56%30.09 "Hg1 mi
1:00 PM68 °FHaze.2 mph56%30.12 "Hg1 mi
12:30 PM66 °FHaze.2 mph60%30.12 "Hg1 mi
12:00 PM66 °FHaze.2 mph60%30.12 "Hg1 mi
11:00 AM63 °FFog.No wind68%30.18 "Hg1 mi
10:30 AM59 °FFog.No wind77%30.18 "Hg1 mi
10:00 AM57 °FFog.No wind77%30.18 "Hg1 mi
9:00 AM52 °FFog.No wind88%30.15 "Hg1 mi
8:30 AM52 °FFog.No wind88%30.15 "Hg1 mi
Weather by CustomWeather, © 2014

See weather overviewHow to use our weather pages